Regional Weather Roundup
Issued by NWS

Home | Current Version | Previous Version | Text Only | Print | Product List | Glossary Off
Versions: 1 2 3 4 5 6 7 8 9 10 11 12 13 14 15 16 17 18 19 20 21 22 23 24 25 26 27 28 29 30 31 32 33 34 35 36 37 38 39 40 41 42 43 44 45 46 47 48 49

000
ASUS45 KCYS 210110
RWRWY

WYOMING REGIONAL WEATHER ROUNDUP
NATIONAL WEATHER SERVICE CHEYENNE WY
700 PM MDT SAT SEP 20 2014

NOTE:  "FAIR" INDICATES FEW OR NO CLOUDS BELOW 12,000 FEET
WITH NO SIGNIFICANT WEATHER AND/OR OBSTRUCTIONS TO VISIBILITY.

WYZ001-210200-
YELLOWSTONE NATIONAL PARK

CITY           SKY/WX    TMP DP  RH WIND       PRES   REMARKS
LK YELLOWSTONE   N/A     53  45  74 CALM      30.39F
W YELLOWSTONE  NOT AVBL

$$
WYZ002>013-054>058-071-098>099-210200-
NORTHERN WYOMING

CITY           SKY/WX    TMP DP  RH WIND       PRES   REMARKS
JACKSON        CLEAR     72  43  35 VRB6      30.26S
CODY             N/A    N/A N/A N/A MISG        N/A
GREYBULL       CLEAR     73  39  29 N10       30.19S
WORLAND        CLEAR     71  45  39 NE3       30.20S
SHERIDAN       CLEAR     61  46  57 W6        30.26R
BUFFALO          N/A     63  39  41 NW9       30.31S
GILLETTE       CLEAR     60  38  43 N3        30.27S
HULETT         FAIR      63  37  39 MISG      30.27
NEWCASTLE      FAIR      64  32  29 NW9       30.25

$$
WYZ014>020-022>026-101>103-210200-
CENTRAL WYOMING

CITY           SKY/WX    TMP DP  RH WIND       PRES   REMARKS
BIG PINEY      CLEAR     73  31  21 CALM      30.30S
PINEDALE       CLEAR     70  30  23 MISG      30.31S
DUBOIS         FAIR      63  37  39 SE13G18   30.34R
LANDER         CLEAR     73  37  27 N3        30.24R
RIVERTON       CLEAR     72  39  30 NE13      30.25S
CASPER         CLEAR     68  38  33 NE10      30.27S
DOUGLAS        CLEAR     68  38  33 NE14      30.28R

$$
WYZ021-027>030-104>119-210200-
SOUTHERN WYOMING

CITY           SKY/WX    TMP DP  RH WIND       PRES   REMARKS
EVANSTON       CLEAR     72  31  22 E9        30.28S
KEMMERER       CLEAR     68  32  26 E6        30.31S
ROCK SPRINGS   CLEAR     73  28  18 N3        30.27S
DIXON          FAIR      71  38  30 N6        30.27S
RAWLINS        CLEAR     70  32  24 NE10      30.30S
SARATOGA       FAIR      68  32  26 CALM      30.31S
LARAMIE        CLEAR     65  42  43 E15       30.35R
CHEYENNE       PTCLDY    69  44  40 NE8       30.31R
TORRINGTON     CLEAR     70  41  34 N14       30.20R
PINE BLUFFS    FAIR      68  43  40 NE6       30.26R

$$



USA.gov is the U.S. government's official web portal to all federal, state and local government web resources and services.